,,Stat5,,Stat1,,Stat2,,Stat3,,Stat4,,Wind1,,Wind1,
time,status,PA1M_AVG,status,PR1M_SUM,status,RH1M_AVG,status,SR1M_AVG,status,TA1M_AVG,status,W1dAve1m,status,W1sAve1m,
2001-03-18, 00:00:01,VALID,917.593,VALID,0,VALID,96.5479,VALID,-0.101885,VALID,18.475,VALID,247,VALID,0,
2001-03-18, 00:01:00,VALID,917.534,VALID,0,VALID,97.3184,VALID,-0.101885,VALID,18.5428,VALID,247,VALID,0,
2001-03-18, 00:02:00,VALID,917.512,VALID,0,VALID,97.6859,VALID,-0.101885,VALID,18.6395,VALID,247,VALID,0,
2001-03-18, 00:03:00,VALID,917.509,VALID,0,VALID,97.7749,VALID,-0.101885,VALID,18.7133,VALID,247,VALID,0,
2001-03-18, 00:04:00,VALID,917.52,VALID,0,VALID,97.663,VALID,-0.101885,VALID,18.7724,VALID,247,VALID,0,
2001-03-18, 00:05:00,VALID,917.547,VALID,0,VALID,97.4469,VALID,-0.0849042,VALID,18.7816,VALID,247,VALID,0,
2001-03-18, 00:06:00,VALID,917.554,VALID,0,VALID,97.4062,VALID,-0.118866,VALID,18.801,VALID,247,VALID,0,
2001-03-18, 00:07:00,VALID,917.558,VALID,0,VALID,97.4596,VALID,-0.0849042,VALID,18.8492,VALID,247,VALID,0,
2001-03-18, 00:08:00,VALID,917.535,VALID,0,VALID,96.9192,VALID,-0.101885,VALID,18.8298,VALID,186,VALID,0.111506,
2001-03-18, 00:09:00,VALID,917.516,VALID,0,VALID,94.9672,VALID,-0.0679233,VALID,18.6847,VALID,93,VALID,0.434622,
2001-03-18, 00:10:00,VALID,917.499,VALID,0,VALID,95.0486,VALID,-0.0849042,VALID,18.5746,VALID,93,VALID,0.379492,
2001-03-18, 00:11:00,VALID,917.468,VALID,0,VALID,95.9222,VALID,-0.0849042,VALID,18.5518,VALID,93,VALID,0.518709,
2001-03-18, 00:12:00,VALID,917.408,VALID,0,VALID,96.3851,VALID,-0.0849042,VALID,18.5133,VALID,96,VALID,0.611378,
2001-03-18, 00:13:00,VALID,917.408,VALID,0,VALID,96.4016,VALID,-0.101885,VALID,18.5135,VALID,100,VALID,0.731497,
2001-03-18, 00:14:00,VALID,917.384,VALID,0,VALID,95.8065,VALID,-0.0849042,VALID,18.4521,VALID,100,VALID,0.555489,
2001-03-18, 00:15:00,VALID,917.392,VALID,0,VALID,96.2147,VALID,-0.101885,VALID,18.43,VALID,95,VALID,0.705448,
2001-03-18, 00:16:00,VALID,917.393,VALID,0,VALID,96.909,VALID,-0.101885,VALID,18.4623,VALID,93,VALID,0.664063,
2001-03-18, 00:17:00,VALID,917.412,VALID,0,VALID,97.1124,VALID,-0.0849042,VALID,18.4974,VALID,95,VALID,0.518359,
2001-03-18, 00:18:00,VALID,917.423,VALID,0,VALID,96.8963,VALID,-0.101885,VALID,18.5038,VALID,101,VALID,0.541667,
2001-03-18, 00:19:00,VALID,917.439,VALID,0,VALID,96.9319,VALID,-0.101885,VALID,18.5234,VALID,100,VALID,0.571368,
2001-03-18, 00:20:00,VALID,917.44,VALID,0,VALID,97.0133,VALID,-0.101885,VALID,18.5553,VALID,100,VALID,0.686472,
2001-03-18, 00:21:00,VALID,917.426,VALID,0,VALID,96.2655,VALID,-0.0509425,VALID,18.5098,VALID,104,VALID,0.835268,
2001-03-18, 00:22:00,VALID,917.403,VALID,0,VALID,96.5466,VALID,0,VALID,18.4738,VALID,102,VALID,0.840372,
2001-03-18, 00:23:00,VALID,917.389,VALID,0,VALID,97.56,VALID,-0.0169808,VALID,18.5896,VALID,94,VALID,0.74815,
2001-03-18, 00:24:00,VALID,917.374,VALID,0,VALID,97.396,VALID,0,VALID,18.651,VALID,96,VALID,0.559821,
2001-03-18, 00:25:00,VALID,917.384,VALID,0,VALID,97.1938,VALID,-0.0339617,VALID,18.6699,VALID,100,VALID,0.598558,
2001-03-18, 00:26:00,VALID,917.406,VALID,0,VALID,97.115,VALID,-0.0169808,VALID,18.7024,VALID,95,VALID,0.60178,
2001-03-18, 00:27:00,VALID,917.416,VALID,0,VALID,97.2421,VALID,-0.0339617,VALID,18.7635,VALID,95,VALID,0.462788,
2001-03-18, 00:28:00,VALID,917.439,VALID,0,VALID,97.251,VALID,0,VALID,18.8087,VALID,95,VALID,0.436472,
2001-03-18, 00:29:00,VALID,917.437,VALID,0,VALID,97.1798,VALID,0,VALID,18.8514,VALID,95,VALID,0.373944,
2001-03-18, 00:30:00,VALID,917.429,VALID,0,VALID,96.8683,VALID,0,VALID,18.8184,VALID,95,VALID,0.520312,
2001-03-18, 00:31:00,VALID,917.423,VALID,0,VALID,96.7907,VALID,0,VALID,18.8095,VALID,100,VALID,0.638221,
2001-03-18, 00:32:00,VALID,917.417,VALID,0,VALID,97.2193,VALID,-0.0339617,VALID,18.8574,VALID,92,VALID,0.898638,
2001-03-18, 00:33:00,VALID,917.401,VALID,0,VALID,97.2396,VALID,0,VALID,18.9444,VALID,85,VALID,1.01457,
2001-03-18, 00:34:00,VALID,917.382,VALID,0,VALID,96.9993,VALID,0,VALID,19.0117,VALID,81,VALID,0.85617,
2001-03-18, 00:35:00,VALID,917.389,VALID,0,VALID,96.7411,VALID,-0.0169808,VALID,19.0544,VALID,81,VALID,0.715303,
2001-03-18, 00:36:00,VALID,917.394,VALID,0,VALID,96.324,VALID,0.0169808,VALID,19.0537,VALID,76,VALID,0.574023,
2001-03-18, 00:37:00,VALID,917.406,VALID,0,VALID,96.1244,VALID,-0.0339617,VALID,19.0736,VALID,87,VALID,1.10197,
2001-03-18, 00:38:00,VALID,917.412,VALID,0,VALID,95.3678,VALID,0.0169808,VALID,19.0932,VALID,82,VALID,0.629808,
2001-03-18, 00:39:00,VALID,917.421,VALID,0,VALID,95.1008,VALID,-0.0169808,VALID,19.125,VALID,88,VALID,1.03886,
2001-03-18, 00:40:00,VALID,917.412,VALID,0,VALID,94.1496,VALID,0,VALID,19.1605,VALID,87,VALID,1.09082,
2001-03-18, 00:41:00,VALID,917.418,VALID,0,VALID,94.0784,VALID,0,VALID,19.1737,VALID,89,VALID,1.31387,
2001-03-18, 00:42:00,VALID,917.39,VALID,0,VALID,93.6982,VALID,0,VALID,19.2318,VALID,85,VALID,1.52544,
2001-03-18, 00:43:00,VALID,917.341,VALID,0,VALID,92.7394,VALID,0,VALID,19.3643,VALID,88,VALID,1.38528,
2001-03-18, 00:44:00,VALID,917.292,VALID,0,VALID,92.5092,VALID,0,VALID,19.3929,VALID,86,VALID,1.11198,
2001-03-18, 00:45:00,VALID,917.263,VALID,0,VALID,92.9835,VALID,-0.0169808,VALID,19.3834,VALID,92,VALID,1.13902,
2001-03-18, 00:46:00,VALID,917.227,VALID,0,VALID,93.4871,VALID,0,VALID,19.377,VALID,90,VALID,1.11233,
2001-03-18, 00:47:00,VALID,917.203,VALID,0,VALID,93.9728,VALID,0.0169808,VALID,19.4025,VALID,82,VALID,1.18029,
2001-03-18, 00:48:00,VALID,917.188,VALID,0,VALID,93.922,VALID,0,VALID,19.4185,VALID,90,VALID,1.08746,
2001-03-18, 00:49:00,VALID,917.176,VALID,0,VALID,93.8737,VALID,0.0169808,VALID,19.4187,VALID,89,VALID,1.21441,
2001-03-18, 00:50:00,VALID,917.171,VALID,0,VALID,93.8966,VALID,0.0169808,VALID,19.3869,VALID,84,VALID,0.902244,
2001-03-18, 00:51:00,VALID,917.176,VALID,0,VALID,94.1432,VALID,0,VALID,19.3866,VALID,83,VALID,0.802787,
2001-03-18, 00:52:00,VALID,917.158,VALID,0,VALID,94.1216,VALID,0,VALID,19.3732,VALID,86,VALID,0.477764,
2001-03-18, 00:53:00,VALID,917.161,VALID,0,VALID,94.2017,VALID,0.0169808,VALID,19.367,VALID,86,VALID,0.56435,
2001-03-18, 00:54:00,VALID,917.159,VALID,0,VALID,94.3836,VALID,0,VALID,19.3675,VALID,86,VALID,0.387767,
2001-03-18, 00:55:00,VALID,917.169,VALID,0,VALID,94.1712,VALID,0,VALID,19.3576,VALID,85,VALID,0.255809,
2001-03-18, 00:56:00,VALID,917.153,VALID,0,VALID,94.2157,VALID,-0.0169808,VALID,19.3312,VALID,83,VALID,0.455025,
2001-03-18, 00:57:00,VALID,917.129,VALID,0,VALID,94.189,VALID,0.0169808,VALID,19.3156,VALID,90,VALID,0.665396,
2001-03-18, 00:58:00,VALID,917.096,VALID,0,VALID,94.4891,VALID,-0.0339617,VALID,19.3089,VALID,91,VALID,0.833534,
2001-03-18, 00:59:00,VALID,917.058,VALID,0,VALID,94.2297,VALID,-0.0169808,VALID,19.3191,VALID,91,VALID,0.380068,
2001-03-18, 01:00:00,VALID,917.026,VALID,0,VALID,94.6697,VALID,0,VALID,19.3283,VALID,57,VALID,0.795139,
2001-03-18, 01:01:00,VALID,917.001,VALID,0,VALID,94.5336,VALID,0,VALID,19.364,VALID,71,VALID,0.552284,
2001-03-18, 01:02:00,VALID,916.95,VALID,0,VALID,94.5845,VALID,0,VALID,19.3608,VALID,86,VALID,0.314108,
2001-03-18, 01:03:00,VALID,916.914,VALID,0,VALID,94.0148,VALID,0,VALID,19.3419,VALID,86,VALID,0.102539,
2001-03-18, 01:04:00,VALID,916.884,VALID,0,VALID,94.1242,VALID,0,VALID,19.3027,VALID,59,VALID,0.528166,
2001-03-18, 01:05:00,VALID,916.886,VALID,0,VALID,94.8019,VALID,0,VALID,19.3049,VALID,74,VALID,0.392361,
2001-03-18, 01:06:01,VALID,916.89,VALID,0,VALID,94.6417,VALID,0,VALID,19.3253,VALID,91,VALID,0,
2001-03-18, 01:07:00,VALID,916.876,VALID,0,VALID,94.6646,VALID,0,VALID,19.3116,VALID,121,VALID,0.305078,
2001-03-18, 01:08:00,VALID,916.869,VALID,0,VALID,94.4255,VALID,0,VALID,19.3278,VALID,50,VALID,0.596012,
2001-03-18, 01:09:00,VALID,916.856,VALID,0,VALID,94.4828,VALID,0,VALID,19.3479,VALID,74,VALID,0.428043,
2001-03-18, 01:10:00,VALID,916.844,VALID,0,VALID,94.5692,VALID,0.0339617,VALID,19.3409,VALID,46,VALID,0.561719,
2001-03-18, 01:11:00,VALID,916.809,VALID,0,VALID,94.6989,VALID,0.0169808,VALID,19.3437,VALID,92,VALID,0.302083,
2001-03-18, 01:12:00,VALID,916.761,VALID,0,VALID,94.7028,VALID,0,VALID,19.3442,VALID,104,VALID,0.371833,
2001-03-18, 01:13:00,VALID,916.702,VALID,0,VALID,94.5006,VALID,0.0169808,VALID,19.335,VALID,111,VALID,0.248264,
2001-03-18, 01:14:00,VALID,916.675,VALID,0,VALID,94.7295,VALID,0,VALID,19.3283,VALID,109,VALID,0.583333,
2001-03-18, 01:15:01,VALID,916.645,VALID,0,VALID,94.7409,VALID,0,VALID,19.3312,VALID,92,VALID,0.661529,
2001-03-18, 01:16:00,VALID,916.611,VALID,0,VALID,94.4993,VALID,0,VALID,19.332,VALID,64,VALID,0.59016,
2001-03-18, 01:17:00,VALID,916.587,VALID,0,VALID,94.8503,VALID,0,VALID,19.3315,VALID,81,VALID,0.814215,
2001-03-18, 01:18:00,VALID,916.561,VALID,0,VALID,94.6366,VALID,0,VALID,19.3213,VALID,82,VALID,0.876478,
2001-03-18, 01:19:00,VALID,916.538,VALID,0,VALID,94.2208,VALID,-0.0169808,VALID,19.2927,VALID,102,VALID,0.706055,
2001-03-18, 01:20:00,VALID,916.5,VALID,0,VALID,94.2488,VALID,0,VALID,19.2796,VALID,85,VALID,1.3109,
2001-03-18, 01:21:00,VALID,916.477,VALID,0,VALID,94.259,VALID,-0.0169808,VALID,19.296,VALID,97,VALID,1.36719,
2001-03-18, 01:22:00,VALID,916.437,VALID,0,VALID,93.9474,VALID,0,VALID,19.2897,VALID,62,VALID,0.482113,
2001-03-18, 01:23:01,VALID,916.453,VALID,0,VALID,93.66,VALID,-0.0169808,VALID,19.2507,VALID,8,VALID,0.118832,
2001-03-18, 01:24:00,VALID,916.448,VALID,0,VALID,93.243,VALID,0,VALID,19.2443,VALID,303,VALID,0.181588,
2001-03-18, 01:25:00,VALID,916.438,VALID,0,VALID,93.0357,VALID,0,VALID,19.2505,VALID,288,VALID,0.0046875,
2001-03-18, 01:26:00,VALID,916.419,VALID,0,VALID,92.9975,VALID,-0.0169808,VALID,19.2413,VALID,288,VALID,0,
2001-03-18, 01:27:00,VALID,916.397,VALID,0,VALID,92.9797,VALID,0,VALID,19.2281,VALID,250,VALID,0,
2001-03-18, 01:28:00,VALID,916.39,VALID,0,VALID,93.3269,VALID,0,VALID,19.2182,VALID,250,VALID,0.210938,
2001-03-18, 01:29:01,VALID,916.402,VALID,0,VALID,93.1768,VALID,0.0169808,VALID,19.2023,VALID,260,VALID,0.217093,
2001-03-18, 01:30:00,VALID,916.401,VALID,0,VALID,93.3777,VALID,0,VALID,19.2023,VALID,267,VALID,0.255962,
2001-03-18, 01:31:00,VALID,916.377,VALID,0,VALID,93.8953,VALID,0,VALID,19.2025,VALID,267,VALID,0.0205078,
2001-03-18, 01:32:00,VALID,916.354,VALID,0,VALID,93.8419,VALID,0,VALID,19.1832,VALID,267,VALID,0.0536595,
2001-03-18, 01:33:01,VALID,916.355,VALID,0,VALID,93.7236,VALID,-0.0339617,VALID,19.1737,VALID,267,VALID,0.33347,
2001-03-18, 01:34:01,VALID,916.363,VALID,0,VALID,93.6079,VALID,-0.0169808,VALID,19.1409,VALID,268,VALID,0.303043,
2001-03-18, 01:35:00,VALID,916.344,VALID,0,VALID,93.6181,VALID,0,VALID,19.1186,VALID,269,VALID,0.0855369,
2001-03-18, 01:36:01,VALID,916.333,VALID,0,VALID,93.2518,VALID,0.0169808,VALID,19.0858,VALID,269,VALID,0,
2001-03-18, 01:37:00,VALID,916.31,VALID,0,VALID,92.3401,VALID,0,VALID,18.9857,VALID,260,VALID,0,
2001-03-18, 01:38:00,VALID,916.297,VALID,0,VALID,93.0039,VALID,0,VALID,18.8892,VALID,225,VALID,0,
2001-03-18, 01:39:00,VALID,916.29,VALID,0,VALID,93.8025,VALID,0,VALID,18.8309,VALID,225,VALID,0,
2001-03-18, 01:40:01,VALID,916.282,VALID,0,VALID,94.1267,VALID,0.0169808,VALID,18.7991,VALID,225,VALID,0,
2001-03-18, 01:41:00,VALID,916.284,VALID,0,VALID,93.9907,VALID,0,VALID,18.7538,VALID,224,VALID,0,
2001-03-18, 01:42:00,VALID,916.297,VALID,0,VALID,93.8813,VALID,0,VALID,18.6567,VALID,223,VALID,0,
2001-03-18, 01:43:00,VALID,916.342,VALID,0,VALID,94.0275,VALID,-0.0169808,VALID,18.5862,VALID,223,VALID,0,
2001-03-18, 01:44:00,VALID,916.382,VALID,0,VALID,94.362,VALID,0,VALID,18.5439,VALID,223,VALID,0,
2001-03-18, 01:45:00,VALID,916.429,VALID,0,VALID,94.451,VALID,-0.0169808,VALID,18.5089,VALID,168,VALID,0,
2001-03-18, 01:46:00,VALID,916.428,VALID,0,VALID,94.1712,VALID,-0.0169808,VALID,18.4475,VALID,149,VALID,0,
2001-03-18, 01:47:00,VALID,916.411,VALID,0,VALID,93.8266,VALID,-0.0169808,VALID,18.3405,VALID,128,VALID,0,
2001-03-18, 01:48:00,VALID,916.38,VALID,0,VALID,94.1839,VALID,0,VALID,18.2402,VALID,97,VALID,0.64412,
2001-03-18, 01:49:00,VALID,916.347,VALID,0,VALID,94.573,VALID,-0.0169808,VALID,18.1465,VALID,96,VALID,0.599301,
2001-03-18, 01:50:00,VALID,916.321,VALID,0,VALID,95.1109,VALID,0,VALID,18.0919,VALID,92,VALID,0.638302,
2001-03-18, 01:51:00,VALID,916.304,VALID,0,VALID,95.6069,VALID,-0.0169808,VALID,18.063,VALID,86,VALID,0.669727,
2001-03-18, 01:52:00,VALID,916.295,VALID,0,VALID,95.9972,VALID,-0.0169808,VALID,18.0757,VALID,83,VALID,0.498197,
2001-03-18, 01:53:00,VALID,916.294,VALID,0,VALID,96.0507,VALID,-0.0339617,VALID,18.1016,VALID,68,VALID,0.328926,
2001-03-18, 01:54:01,VALID,916.296,VALID,0,VALID,95.9388,VALID,-0.0509425,VALID,18.1048,VALID,80,VALID,0.267103,
2001-03-18, 01:55:00,VALID,916.306,VALID,0,VALID,95.8968,VALID,-0.0169808,VALID,18.1341,VALID,82,VALID,0,
2001-03-18, 01:56:00,VALID,916.297,VALID,0,VALID,95.8675,VALID,-0.0339617,VALID,18.186,VALID,82,VALID,0,
2001-03-18, 01:57:00,VALID,916.256,VALID,0,VALID,95.4708,VALID,-0.0339617,VALID,18.2111,VALID,84,VALID,0,
2001-03-18, 01:58:01,VALID,916.229,VALID,0,VALID,94.9494,VALID,0,VALID,18.2436,VALID,97,VALID,0,
2001-03-18, 01:59:01,VALID,916.208,VALID,0,VALID,94.6328,VALID,-0.0169808,VALID,18.2469,VALID,97,VALID,0,
2001-03-18, 02:00:00,VALID,916.201,VALID,0,VALID,94.9253,VALID,0,VALID,18.2473,VALID,97,VALID,0,
2001-03-18, 02:01:00,VALID,916.177,VALID,0,VALID,94.6061,VALID,-0.0169808,VALID,18.2279,VALID,97,VALID,0,
2001-03-18, 02:02:00,VALID,916.172,VALID,0,VALID,95.0092,VALID,-0.0339617,VALID,18.2409,VALID,97,VALID,0,
2001-03-18, 02:03:01,VALID,916.155,VALID,0,VALID,95.0982,VALID,-0.0339617,VALID,18.2635,VALID,97,VALID,0,
2001-03-18, 02:04:01,VALID,916.153,VALID,0,VALID,95.0741,VALID,0,VALID,18.2731,VALID,98,VALID,0,
2001-03-18, 02:05:00,VALID,916.149,VALID,0,VALID,95.0957,VALID,-0.0169808,VALID,18.2409,VALID,99,VALID,0,
2001-03-18, 02:06:00,VALID,916.149,VALID,0,VALID,95.3843,VALID,0,VALID,18.2279,VALID,99,VALID,0,
2001-03-18, 02:07:01,VALID,916.154,VALID,0,VALID,95.8192,VALID,0,VALID,18.254,VALID,100,VALID,0,
2001-03-18, 02:08:00,VALID,916.16,VALID,0,VALID,95.893,VALID,0,VALID,18.2501,VALID,99,VALID,0.0152244,
2001-03-18, 02:09:00,VALID,916.157,VALID,0,VALID,96.3164,VALID,-0.0339617,VALID,18.3054,VALID,103,VALID,0.613064,
2001-03-18, 02:10:01,VALID,916.146,VALID,0,VALID,96.2617,VALID,-0.0169808,VALID,18.3866,VALID,113,VALID,0.542318,
2001-03-18, 02:11:00,VALID,916.151,VALID,0,VALID,95.8879,VALID,-0.0169808,VALID,18.4572,VALID,112,VALID,0.351763,
2001-03-18, 02:12:00,VALID,916.149,VALID,0,VALID,95.5318,VALID,-0.0169808,VALID,18.4828,VALID,102,VALID,0.491976,
2001-03-18, 02:13:00,VALID,916.158,VALID,0,VALID,95.1605,VALID,0,VALID,18.5285,VALID,98,VALID,0.629407,
2001-03-18, 02:14:00,VALID,916.159,VALID,0,VALID,94.9545,VALID,-0.0339617,VALID,18.5255,VALID,97,VALID,0.346628,
2001-03-18, 02:15:01,VALID,916.167,VALID,0,VALID,95.35,VALID,0,VALID,18.5416,VALID,61,VALID,0.482851,
2001-03-18, 02:16:00,VALID,916.171,VALID,0,VALID,95.9248,VALID,0,VALID,18.6321,VALID,353,VALID,0.315905,
2001-03-18, 02:17:00,VALID,916.165,VALID,0,VALID,95.6959,VALID,0,VALID,18.7029,VALID,316,VALID,0.10853,
2001-03-18, 02:18:00,VALID,916.169,VALID,0,VALID,95.0715,VALID,-0.0509425,VALID,18.7091,VALID,310,VALID,0.318026,
2001-03-18, 02:19:00,VALID,916.156,VALID,0,VALID,94.1242,VALID,-0.0169808,VALID,18.7123,VALID,321,VALID,0.119191,
2001-03-18, 02:20:00,VALID,916.147,VALID,0,VALID,93.6193,VALID,0,VALID,18.6674,VALID,342,VALID,0.0948057,
2001-03-18, 02:21:00,VALID,916.118,VALID,0,VALID,94.0364,VALID,0.0169808,VALID,18.6865,VALID,102,VALID,0.380859,
2001-03-18, 02:22:00,VALID,916.113,VALID,0,VALID,93.9792,VALID,0,VALID,18.69,VALID,101,VALID,0.6248,
2001-03-18, 02:23:00,VALID,916.122,VALID,0,VALID,94.1305,VALID,0,VALID,18.7449,VALID,92,VALID,0.342371,
2001-03-18, 02:24:00,VALID,916.138,VALID,0,VALID,93.6638,VALID,-0.0509425,VALID,18.7354,VALID,92,VALID,0.25918,
2001-03-18, 02:25:01,VALID,916.143,VALID,0,VALID,93.7783,VALID,0,VALID,18.6934,VALID,76,VALID,0.356086,
2001-03-18, 02:26:00,VALID,916.143,VALID,0,VALID,94.5756,VALID,0,VALID,18.693,VALID,56,VALID,0.582465,
2001-03-18, 02:27:01,VALID,916.127,VALID,0,VALID,93.5227,VALID,0,VALID,18.6411,VALID,69,VALID,0.576275,
2001-03-18, 02:28:00,VALID,916.111,VALID,0,VALID,94.2361,VALID,0,VALID,18.5767,VALID,82,VALID,0.358203,
2001-03-18, 02:29:00,VALID,916.087,VALID,0,VALID,94.5743,VALID,-0.0169808,VALID,18.5638,VALID,83,VALID,0,
2001-03-18, 02:30:01,VALID,916.094,VALID,0,VALID,94.7956,VALID,-0.0509425,VALID,18.5384,VALID,83,VALID,0,
2001-03-18, 02:31:00,VALID,916.082,VALID,0,VALID,95.1046,VALID,0.0169808,VALID,18.5409,VALID,83,VALID,0.0605469,
2001-03-18, 02:32:00,VALID,916.097,VALID,0,VALID,95.2127,VALID,-0.0169808,VALID,18.5317,VALID,83,VALID,0,
2001-03-18, 02:33:00,VALID,916.149,VALID,0,VALID,95.528,VALID,-0.0509425,VALID,18.5546,VALID,83,VALID,0,
2001-03-18, 02:34:00,VALID,916.172,VALID,0,VALID,95.6272,VALID,-0.0339617,VALID,18.5866,VALID,83,VALID,0,
2001-03-18, 02:35:00,VALID,916.193,VALID,0,VALID,95.6119,VALID,0,VALID,18.6191,VALID,70,VALID,0.22476,
2001-03-18, 02:36:01,VALID,916.193,VALID,0,VALID,94.5959,VALID,-0.0169808,VALID,18.603,VALID,75,VALID,0.346495,
2001-03-18, 02:37:01,VALID,916.177,VALID,0,VALID,95.13,VALID,0,VALID,18.5958,VALID,76,VALID,0.211993,
2001-03-18, 02:38:00,VALID,916.177,VALID,0,VALID,95.205,VALID,-0.0169808,VALID,18.6611,VALID,78,VALID,0.332317,
2001-03-18, 02:39:00,VALID,916.155,VALID,0,VALID,95.3144,VALID,0,VALID,18.6766,VALID,90,VALID,0.0701014,
2001-03-18, 02:40:01,VALID,916.11,VALID,0,VALID,94.8706,VALID,0,VALID,18.7153,VALID,115,VALID,0.295508,
2001-03-18, 02:41:01,VALID,916.066,VALID,0,VALID,94.629,VALID,0,VALID,18.7063,VALID,121,VALID,0.529848,
2001-03-18, 02:42:01,VALID,916.036,VALID,0,VALID,95.1275,VALID,0,VALID,18.716,VALID,121,VALID,0.103125,
2001-03-18, 02:43:01,VALID,916.037,VALID,0,VALID,95.2877,VALID,-0.0509425,VALID,18.722,VALID,113,VALID,0.164474,
2001-03-18, 02:44:01,VALID,916.023,VALID,0,VALID,95.1987,VALID,0,VALID,18.7806,VALID,75,VALID,0.547492,
2001-03-18, 02:45:00,VALID,915.995,VALID,0,VALID,92.658,VALID,0,VALID,18.7029,VALID,82,VALID,0.801943,
2001-03-18, 02:46:00,VALID,915.993,VALID,0,VALID,94.2729,VALID,0,VALID,18.6249,VALID,85,VALID,0.550391,
2001-03-18, 02:47:00,VALID,915.989,VALID,0,VALID,95.3271,VALID,0,VALID,18.7163,VALID,91,VALID,0.648872,
2001-03-18, 02:48:00,VALID,915.977,VALID,0,VALID,95.2317,VALID,0,VALID,18.764,VALID,86,VALID,0.721073,
2001-03-18, 02:49:00,VALID,915.997,VALID,0,VALID,94.8503,VALID,0,VALID,18.8065,VALID,66,VALID,0.657689,
2001-03-18, 02:50:01,VALID,916.036,VALID,0,VALID,94.9583,VALID,-0.0339617,VALID,18.8614,VALID,24,VALID,0.549006,
2001-03-18, 02:51:01,VALID,916.064,VALID,0,VALID,94.732,VALID,-0.0169808,VALID,18.9456,VALID,23,VALID,0.473684,
2001-03-18, 02:52:01,VALID,916.053,VALID,0,VALID,93.2951,VALID,-0.0509425,VALID,18.9585,VALID,50,VALID,0.601953,
2001-03-18, 02:53:01,VALID,916.013,VALID,0,VALID,92.9772,VALID,-0.0339617,VALID,18.8291,VALID,78,VALID,0.758224,
2001-03-18, 02:54:01,VALID,915.973,VALID,0,VALID,93.454,VALID,0,VALID,18.7511,VALID,87,VALID,0.94778,
2001-03-18, 02:55:01,VALID,915.959,VALID,0,VALID,94.3136,VALID,0,VALID,18.6704,VALID,83,VALID,0.911595,
2001-03-18, 02:56:01,VALID,915.958,VALID,0,VALID,95.0613,VALID,0,VALID,18.6999,VALID,53,VALID,0.719952,
2001-03-18, 02:57:01,VALID,915.975,VALID,0,VALID,95.3513,VALID,0,VALID,18.7412,VALID,47,VALID,0.0910051,
2001-03-18, 02:58:01,VALID,915.98,VALID,0,VALID,94.9978,VALID,0,VALID,18.7319,VALID,52,VALID,0.00164474,
2001-03-18, 02:59:01,VALID,915.978,VALID,0,VALID,94.6951,VALID,-0.0169808,VALID,18.719,VALID,74,VALID,0.270117,
2001-03-18, 03:00:01,VALID,915.951,VALID,0,VALID,94.32,VALID,0,VALID,18.693,VALID,90,VALID,0.535156,
2001-03-18, 03:01:01,VALID,915.921,VALID,0,VALID,94.0962,VALID,-0.0339617,VALID,18.6447,VALID,85,VALID,0.706926,
2001-03-18, 03:02:01,VALID,915.915,VALID,0,VALID,94.2259,VALID,-0.0679233,VALID,18.5935,VALID,88,VALID,0.658923,
2001-03-18, 03:03:01,VALID,915.892,VALID,0,VALID,94.9444,VALID,0,VALID,18.5799,VALID,96,VALID,0.905134,
2001-03-18, 03:04:01,VALID,915.894,VALID,0,VALID,95.2877,VALID,-0.0169808,VALID,18.5963,VALID,92,VALID,1.12669,
2001-03-18, 03:05:01,VALID,915.882,VALID,0,VALID,95.5115,VALID,-0.0339617,VALID,18.6157,VALID,83,VALID,1.00555,
2001-03-18, 03:06:01,VALID,915.86,VALID,0,VALID,95.3475,VALID,-0.0169808,VALID,18.6196,VALID,89,VALID,0.991071,
2001-03-18, 03:07:01,VALID,915.813,VALID,0,VALID,95.645,VALID,0,VALID,18.6279,VALID,94,VALID,0.970353,
2001-03-18, 03:08:01,VALID,915.762,VALID,0,VALID,95.5674,VALID,0,VALID,18.648,VALID,91,VALID,0.569444,
2001-03-18, 03:09:01,VALID,915.737,VALID,0,VALID,95.6081,VALID,-0.0169808,VALID,18.674,VALID,84,VALID,0.402138,
2001-03-18, 03:10:01,VALID,915.735,VALID,0,VALID,95.72,VALID,-0.0169808,VALID,18.713,VALID,79,VALID,0.184416,
2001-03-18, 03:11:01,VALID,915.754,VALID,0,VALID,95.659,VALID,-0.0169808,VALID,18.7386,VALID,81,VALID,0.11951,
2001-03-18, 03:12:01,VALID,915.759,VALID,0,VALID,95.7556,VALID,-0.0169808,VALID,18.7707,VALID,93,VALID,0.705859,
2001-03-18, 03:13:00,VALID,915.772,VALID,0,VALID,95.3475,VALID,-0.0169808,VALID,18.8065,VALID,91,VALID,0.698518,
2001-03-18, 03:14:00,VALID,915.789,VALID,0,VALID,95.1046,VALID,-0.0339617,VALID,18.8191,VALID,86,VALID,0.929287,
2001-03-18, 03:15:00,VALID,915.804,VALID,0,VALID,95.1122,VALID,-0.0169808,VALID,18.8318,VALID,88,VALID,0.97614,
2001-03-18, 03:16:00,VALID,915.833,VALID,0,VALID,95.0003,VALID,-0.0339617,VALID,18.8452,VALID,90,VALID,0.728566,
2001-03-18, 03:17:00,VALID,915.838,VALID,0,VALID,95.116,VALID,-0.0169808,VALID,18.8489,VALID,92,VALID,0.845129,
2001-03-18, 03:18:00,VALID,915.826,VALID,0,VALID,95.2623,VALID,0,VALID,18.8485,VALID,80,VALID,0.917773,
2001-03-18, 03:19:00,VALID,915.828,VALID,0,VALID,95.1809,VALID,-0.0509425,VALID,18.8422,VALID,93,VALID,0.843339,
2001-03-18, 03:20:00,VALID,915.825,VALID,0,VALID,95.2228,VALID,-0.0339617,VALID,18.8485,VALID,92,VALID,0.667067,
2001-03-18, 03:21:00,VALID,915.815,VALID,0,VALID,95.3106,VALID,-0.0509425,VALID,18.8526,VALID,85,VALID,0.325452,
2001-03-18, 03:22:00,VALID,915.84,VALID,0,VALID,95.4148,VALID,-0.0849042,VALID,18.8492,VALID,74,VALID,0.716016,
2001-03-18, 03:23:00,VALID,915.853,VALID,0,VALID,95.3665,VALID,-0.0849042,VALID,18.8559,VALID,86,VALID,0.781641,
2001-03-18, 03:24:00,VALID,915.864,VALID,0,VALID,95.2432,VALID,-0.0849042,VALID,18.8231,VALID,80,VALID,0.896234,
2001-03-18, 03:25:00,VALID,915.837,VALID,0,VALID,95.3729,VALID,-0.118866,VALID,18.8169,VALID,81,VALID,0.679482,
2001-03-18, 03:26:00,VALID,915.832,VALID,0,VALID,95.7709,VALID,-0.0849042,VALID,18.8427,VALID,87,VALID,0.808293,
2001-03-18, 03:27:00,VALID,915.826,VALID,0,VALID,95.9464,VALID,-0.0679233,VALID,18.8787,VALID,85,VALID,0.380409,
2001-03-18, 03:28:00,VALID,915.805,VALID,0,VALID,95.954,VALID,-0.0679233,VALID,18.8812,VALID,70,VALID,0.209882,
2001-03-18, 03:29:00,VALID,915.79,VALID,0,VALID,95.7912,VALID,-0.0849042,VALID,18.8715,VALID,68,VALID,0.0010016,
2001-03-18, 03:30:00,VALID,915.758,VALID,0,VALID,95.72,VALID,-0.0849042,VALID,18.8812,VALID,68,VALID,0,
2001-03-18, 03:31:00,VALID,915.732,VALID,0,VALID,95.6666,VALID,-0.0339617,VALID,18.8907,VALID,68,VALID,0,
2001-03-18, 03:32:00,VALID,915.705,VALID,0,VALID,95.2813,VALID,-0.0849042,VALID,18.8678,VALID,107,VALID,0.00120192,
2001-03-18, 03:33:00,VALID,915.719,VALID,0,VALID,95.3195,VALID,-0.0509425,VALID,18.8452,VALID,119,VALID,0,
2001-03-18, 03:34:00,VALID,915.769,VALID,0,VALID,95.3424,VALID,-0.0339617,VALID,18.8196,VALID,120,VALID,0,
2001-03-18, 03:35:00,VALID,915.792,VALID,0,VALID,95.5102,VALID,-0.0679233,VALID,18.8002,VALID,121,VALID,0.103207,
2001-03-18, 03:36:00,VALID,915.813,VALID,0,VALID,95.5929,VALID,-0.0169808,VALID,18.7839,VALID,192,VALID,0.0417302,
2001-03-18, 03:37:00,VALID,915.819,VALID,0,VALID,95.6984,VALID,0.0169808,VALID,18.7665,VALID,201,VALID,0,
2001-03-18, 03:38:00,VALID,915.831,VALID,0,VALID,95.837,VALID,0.0509425,VALID,18.7442,VALID,201,VALID,0,